Location: Gold Fund Mine
(38.3819°N, 119.0996°W)
Time: 17:30:47
(UTC+00:00)

NOSS 3-3 (C) - Pass Details

Date: 18 September 2020
Orbit: 837 x 1375 km, 63.4° (Epoch: 13 October)

Event Time Altitude Azimuth Distance (km) Brightness Sun altitude
Exits shadow 12:15:16 26° 232° (SW) 1,668 4.7 -17.4°
Maximum altitude 12:18:36 64° 306° (NW) 1,013 3.9 -16.8°
Drops below altitude 10° 12:24:58 10° 28° (NNE) 2,775 7.0 -15.6°
Sets 12:27:46 0° 32° (NNE) 3,811 7.8 -15.0°
